GW5170 Weather Reports


time (UTC)temp
F
wind
direction
speed
knots
gust
knots
rain 1hr
in
rain 24hr
in
rain mn
in
humidity
%
barometer
mb
20260506215412 53 299 5.2 6.1 0.00 0.00 0.00 36 1016.7
20260506214908 53 321 10.4 12.2 0.00 0.00 0.00 36 1016.7
20260506214405 54 321 6.1 7.0 0.00 0.00 0.00 35 1016.7
20260506213902 53 314 4.3 7.0 0.00 0.00 0.00 37 1017.0
20260506213359 52 9 7.0 9.6 0.00 0.00 0.00 38 1016.8
20260506212852 53 309 9.6 11.3 0.00 0.00 0.00 36 1017.0
20260506212347 52 316 3.5 7.0 0.00 0.00 0.00 37 1016.8
20260506211842 52 296 7.8 8.7 0.00 0.00 0.00 38 1016.8
20260506211338 52 349 7.0 9.6 0.00 0.00 0.00 38 1016.9
20260506210836 52 248 8.7 11.3 0.00 0.00 0.00 38 1016.8
20260506210333 53 301 9.6 13.0 0.00 0.00 0.00 37 1016.8
20260506205830 53 280 7.0 9.6 0.00 0.00 0.00 36 1017.0
20260506205325 52 301 5.2 8.7 0.00 0.00 0.00 37 1017.0
20260506204822 52 314 8.7 8.7 0.00 0.00 0.00 39 1017.2
20260506204319 52 339 6.1 7.8 0.00 0.00 0.00 37 1017.2
20260506203817 51 352 3.5 6.1 0.00 0.00 0.00 38 1017.5
20260506203314 51 310 8.7 12.2 0.00 0.00 0.00 38 1017.2
20260506202811 52 343 11.3 13.0 0.00 0.00 0.00 37 1017.2
20260506202308 52 228 7.8 11.3 0.00 0.00 0.00 36 1017.2
20260506201804 52 306 10.4 12.2 0.00 0.00 0.00 38 1017.1
20260506201302 53 298 6.1 7.0 0.00 0.00 0.00 37 1017.2
20260506200759 53 8 8.7 14.8 0.00 0.00 0.00 36 1017.3
20260506200255 53 284 9.6 14.8 0.00 0.00 0.00 35 1017.3
20260506195751 53 310 5.2 7.0 0.00 0.00 0.00 37 1017.2
20260506195248 52 272 6.1 8.7 0.00 0.00 0.00 37 1017.0
20260506194745 52 298 8.7 13.0 0.00 0.00 0.00 37 1017.1
20260506194241 52 314 6.1 8.7 0.00 0.00 0.00 36 1017.1
20260506193739 52 332 8.7 12.2 0.00 0.00 0.00 37 1016.9
20260506193236 52 304 10.4 12.2 0.00 0.00 0.00 36 1017.1
20260506192732 53 317 10.4 12.2 0.00 0.00 0.00 36 1017.3
20260506192229 52 333 7.8 9.6 0.00 0.00 0.00 36 1017.1
20260506191726 53 304 12.2 15.6 0.00 0.00 0.00 35 1017.1
20260506191222 52 275 8.7 9.6 0.00 0.00 0.00 37 1017.2
20260506190719 52 301 13.0 18.2 0.00 0.00 0.00 37 1017.3
20260506190216 53 308 12.2 16.5 0.00 0.00 0.00 37 1017.0
20260506185713 53 270 4.3 6.1 0.00 0.00 0.00 37 1016.7
20260506185209 53 250 12.2 15.6 0.00 0.00 0.00 36 1017.1
20260506184707 52 325 7.8 8.7 0.00 0.00 0.00 37 1017.0
20260506184204 52 300 7.0 7.8 0.00 0.00 0.00 37 1016.8
20260506183701 51 306 8.7 12.2 0.00 0.00 0.00 37 1016.9
20260506183156 52 275 6.1 8.7 0.00 0.00 0.00 37 1017.0
20260506182654 52 324 14.8 18.2 0.00 0.00 0.00 37 1016.9
20260506182152 53 10 7.8 11.3 0.00 0.00 0.00 37 1016.9
20260506181649 52 305 5.2 7.0 0.00 0.00 0.00 37 1017.0
20260506181146 52 87 11.3 14.8 0.00 0.00 0.00 38 1017.0
20260506180643 53 277 13.0 19.1 0.00 0.00 0.00 36 1017.0
20260506180139 53 320 8.7 12.2 0.00 0.00 0.00 37 1016.8
20260506175636 52 342 10.4 13.9 0.00 0.00 0.00 37 1016.8
20260506175132 52 301 11.3 14.8 0.00 0.00 0.00 36 1017.2
20260506174631 52 321 12.2 15.6 0.00 0.00 0.00 37 1017.0
20260506174127 53 257 5.2 6.1 0.00 0.00 0.00 38 1016.9
20260506173625 53 8 3.5 3.5 0.00 0.00 0.00 37 1017.1
20260506173121 51 308 13.9 15.6 0.00 0.00 0.00 37 1017.1
20260506172619 51 331 10.4 12.2 0.00 0.00 0.00 38 1017.2
20260506172115 52 5 11.3 14.8 0.00 0.00 0.00 38 1017.2
20260506171613 51 336 8.7 11.3 0.00 0.00 0.00 37 1017.1
20260506171111 51 290 8.7 11.3 0.00 0.00 0.00 38 1017.1
20260506170608 52 312 10.4 16.5 0.00 0.00 0.00 38 1017.3
20260506170105 52 320 8.7 11.3 0.00 0.00 0.00 38 1017.2
20260506165603 51 276 3.5 5.2 0.00 0.00 0.00 38 1017.2
20260506165059 51 332 11.3 13.0 0.00 0.00 0.00 39 1017.0
20260506164556 51 304 8.7 12.2 0.00 0.00 0.00 39 1017.2
20260506164053 51 323 11.3 13.0 0.00 0.00 0.00 39 1017.2
20260506163549 51 333 9.6 13.0 0.00 0.00 0.00 38 1017.2
20260506163045 51 301 14.8 18.2 0.00 0.00 0.00 39 1017.4
20260506162542 50 344 10.4 13.9 0.00 0.00 0.00 39 1017.3
20260506162039 51 340 14.8 18.2 0.00 0.00 0.00 39 1017.3
20260506161536 50 200 5.2 7.8 0.00 0.00 0.00 39 1017.2
20260506161033 50 324 10.4 14.8 0.00 0.00 0.00 39 1017.4
20260506160531 50 299 10.4 13.0 0.00 0.00 0.00 39 1017.4
20260506160028 50 327 8.7 11.3 0.00 0.00 0.00 40 1017.2
20260506155526 50 312 9.6 12.2 0.00 0.00 0.00 40 1017.3
20260506153657 49 290 13.0 16.5 0.00 0.00 0.00 40 1017.3
20260506153154 49 320 9.6 13.0 0.00 0.00 0.00 41 1017.2
20260506152651 49 328 13.9 15.6 0.00 0.00 0.00 41 1017.3
20260506152149 50 318 7.8 9.6 0.00 0.00 0.00 41 1017.1
20260506151648 49 351 7.8 8.7 0.00 0.00 0.00 42 1017.1
20260506151144 48 356 7.0 7.8 0.00 0.00 0.00 43 1017.1
20260506150641 49 315 11.3 14.8 0.00 0.00 0.00 42 1017.0
20260506150138 49 319 11.3 13.0 0.00 0.00 0.00 43 1017.0
20260506145635 48 35 7.8 8.7 0.00 0.00 0.00 44 1017.1
20260506145131 48 332 8.7 9.6 0.00 0.00 0.00 45 1017.1
20260506144629 47 325 9.6 11.3 0.00 0.00 0.00 46 1016.9
20260506144125 48 316 8.7 12.2 0.00 0.00 0.00 45 1016.8
20260506143623 48 326 12.2 15.6 0.00 0.00 0.00 45 1016.9
20260506143121 48 5 4.3 6.1 0.00 0.00 0.00 46 1016.9
20260506142619 48 327 6.1 8.7 0.00 0.00 0.00 45 1017.1
20260506142117 48 316 8.7 9.6 0.00 0.00 0.00 45 1016.9
20260506141614 48 282 2.6 5.2 0.00 0.00 0.00 46 1017.2
20260506141112 48 316 3.5 5.2 0.00 0.00 0.00 48 1017.0
20260506140610 47 315 5.2 7.0 0.00 0.00 0.00 49 1016.9
20260506140107 46 318 7.0 7.8 0.00 0.00 0.00 49 1017.1
20260506135603 46 264 4.3 7.0 0.00 0.00 0.00 51 1017.0
20260506135059 46 299 8.7 9.6 0.00 0.00 0.00 51 1017.1
20260506134556 46 331 3.5 3.5 0.00 0.00 0.00 52 1017.1
20260506134052 46 331 3.5 6.1 0.00 0.00 0.00 53 1017.0
20260506133549 45 293 3.5 5.2 0.00 0.00 0.00 53 1016.7
20260506133046 45 281 9.6 12.2 0.00 0.00 0.00 53 1016.8
20260506132544 45 307 6.1 7.0 0.00 0.00 0.00 55 1016.7
20260506132041 45 308 7.8 8.7 0.00 0.00 0.00 54 1016.7
20260506131538 46 339 2.6 3.5 0.00 0.00 0.00 54 1016.7
20260506131034 45 344 2.6 3.5 0.00 0.00 0.00 54 1016.7
20260506130531 45 310 7.0 8.7 0.00 0.00 0.00 53 1016.5
20260506130029 45 317 5.2 7.8 0.00 0.00 0.00 54 1016.3
20260506125527 45 347 1.7 2.6 0.00 0.00 0.00 55 1016.5
20260506125024 44 297 6.1 7.0 0.00 0.00 0.00 55 1016.3
20260506124522 44 319 6.1 7.0 0.00 0.00 0.00 56 1016.4
20260506124020 44 351 4.3 5.2 0.00 0.00 0.00 56 1016.3
20260506123517 44 298 5.2 7.0 0.00 0.00 0.00 56 1016.3
20260506123015 43 351 3.5 5.2 0.00 0.00 0.00 58 1016.2
20260506122512 43 279 4.3 6.1 0.00 0.00 0.00 58 1016.1
20260506122010 42 334 5.2 7.0 0.00 0.00 0.00 59 1016.1
20260506121507 42 337 5.2 6.1 0.00 0.00 0.00 61 1016.0
20260506121003 42 355 2.6 3.5 0.00 0.00 0.00 63 1015.9
20260506120501 41 337 2.6 2.6 0.00 0.00 0.00 63 1015.9
20260506115958 41 1 5.2 6.1 0.00 0.00 0.00 63 1015.8
20260506115456 41 321 4.3 5.2 0.00 0.00 0.00 63 1015.5
20260506114954 41 349 5.2 6.1 0.00 0.00 0.00 64 1015.5
20260506114451 41 320 3.5 3.5 0.00 0.00 0.00 64 1015.2
20260506113950 40 357 3.5 3.5 0.00 0.00 0.00 65 1015.0
20260506113447 40 326 2.6 2.6 0.00 0.00 0.00 66 1015.1
20260506112943 40 318 1.7 2.6 0.00 0.00 0.00 66 1015.0
20260506112441 39 20 4.3 5.2 0.00 0.00 0.00 67 1014.9
20260506111938 39 336 2.6 2.6 0.00 0.00 0.00 68 1014.9
20260506111437 39 14 1.7 2.6 0.00 0.00 0.00 69 1015.0
20260506110933 38 331 2.6 3.5 0.00 0.00 0.00 71 1015.0
20260506110431 38 339 1.7 1.7 0.00 0.00 0.00 73 1014.9
20260506105927 38 328 1.7 1.7 0.00 0.00 0.00 74 1014.9
20260506105424 38 315 0.9 0.9 0.00 0.00 0.00 74 1014.7
20260506104921 38 324 1.7 1.7 0.00 0.00 0.00 74 1014.7
20260506104419 37 310 1.7 1.7 0.00 0.00 0.00 74 1014.7
20260506103917 37 325 0.9 0.9 0.00 0.00 0.00 76 1014.7
20260506103414 37 332 0.0 0.0 0.00 0.00 0.00 77 1014.6
20260506102911 36 330 0.0 0.9 0.00 0.00 0.00 77 1014.5
20260506102409 36 328 0.0 0.0 0.00 0.00 0.00 78 1014.8
20260506101906 37 329 0.0 0.9 0.00 0.00 0.00 78 1014.8
20260506101402 37 326 0.9 0.9 0.00 0.00 0.00 78 1014.8
20260506100859 37 320 0.9 0.9 0.00 0.00 0.00 77 1014.6
20260506100358 37 314 1.7 1.7 0.00 0.00 0.00 77 1014.8
20260506095856 37 322 0.0 0.0 0.00 0.00 0.00 78 1014.6
20260506095354 37 329 0.9 0.9 0.00 0.00 0.00 79 1014.3
20260506094850 37 336 0.9 0.9 0.00 0.00 0.00 77 1014.3
20260506094349 38 326 0.9 0.9 0.00 0.00 0.00 76 1014.4
20260506093846 38 323 0.0 0.9 0.00 0.00 0.00 75 1014.3
20260506093343 38 316 0.9 0.9 0.00 0.00 0.00 77 1014.5
20260506092841 38 321 0.9 0.9 0.00 0.00 0.00 78 1014.3
20260506092339 37 321 0.9 0.9 0.00 0.00 0.00 78 1014.2
20260506091835 37 324 0.9 0.9 0.00 0.00 0.00 80 1014.2
20260506091333 37 332 0.9 0.9 0.00 0.00 0.00 80 1014.1
20260506090830 37 328 0.9 0.9 0.00 0.00 0.00 80 1014.2
20260506090328 38 320 0.9 0.9 0.00 0.00 0.00 80 1014.2
20260506085824 37 340 0.0 0.9 0.00 0.00 0.00 81 1014.1
20260506085320 37 337 0.0 0.0 0.00 0.00 0.00 83 1014.0
20260506084817 37 337 0.9 0.9 0.00 0.00 0.00 83 1014.2
20260506084314 37 337 0.9 0.9 0.00 0.00 0.00 85 1014.4
20260506083810 36 337 0.0 0.0 0.00 0.00 0.00 85 1014.3
20260506083308 37 337 0.0 0.0 0.00 0.00 0.00 84 1014.3
20260506082806 37 337 0.0 0.0 0.00 0.00 0.00 84 1014.5
20260506082304 37 337 0.9 0.9 0.00 0.00 0.00 84 1014.2
20260506081758 38 337 0.9 0.9 0.00 0.00 0.00 85 1014.3
20260506081256 38 335 0.9 0.9 0.00 0.00 0.00 85 1014.3
20260506080754 38 334 0.0 0.9 0.00 0.00 0.00 84 1014.4
20260506080250 38 334 0.0 0.9 0.00 0.00 0.00 83 1014.3
20260506073234 39 333 0.0 0.0 0.00 0.00 0.00 81 1014.0
20260506072731 39 332 0.0 0.0 0.00 0.00 0.00 81 1014.0
20260506072228 39 332 0.0 0.0 0.00 0.00 0.00 80 1013.9
20260506071726 39 333 0.0 0.0 0.00 0.00 0.00 80 1013.9
20260506071224 39 333 0.0 0.0 0.00 0.00 0.00 79 1013.6
20260506070720 39 333 0.0 0.9 0.00 0.00 0.00 79 1013.5
20260506070217 40 332 0.0 0.0 0.00 0.00 0.00 78 1013.4
20260506062154 42 336 0.0 0.0 0.00 0.00 0.00 70 1013.4
20260506061650 42 330 0.9 0.9 0.00 0.00 0.00 68 1013.5
20260506061148 43 324 0.9 0.9 0.00 0.00 0.00 68 1013.5
20260506060646 43 334 0.0 0.9 0.00 0.00 0.00 67 1013.2
20260506060143 43 334 0.0 0.9 0.00 0.00 0.00 65 1013.4
20260506051115 46 329 0.0 0.9 0.00 0.00 0.00 54 1013.3
20260506050613 47 326 0.9 0.9 0.00 0.00 0.00 53 1013.3
20260506050110 47 325 1.7 1.7 0.00 0.00 0.00 53 1013.2
20260506045103 47 328 0.9 0.9 0.00 0.00 0.00 53 1013.0
20260506044601 48 332 1.7 1.7 0.00 0.00 0.00 52 1013.1
20260506044058 48 337 0.9 0.9 0.00 0.00 0.00 52 1012.9
20260506043555 48 319 0.9 1.7 0.00 0.00 0.00 51 1012.8
20260506043053 48 341 1.7 1.7 0.00 0.00 0.00 51 1012.8
20260506042552 48 351 0.9 0.9 0.00 0.00 0.00 51 1012.8
20260506042049 48 359 1.7 2.6 0.00 0.00 0.00 51 1013.0
20260506041548 48 23 1.7 1.7 0.00 0.00 0.00 51 1013.1
20260506041044 48 350 1.7 2.6 0.00 0.00 0.00 51 1012.9
20260506040542 49 353 0.9 0.9 0.00 0.00 0.00 51 1013.1
20260506040038 49 20 1.7 1.7 0.00 0.00 0.00 51 1013.1
20260506035535 49 344 1.7 1.7 0.00 0.00 0.00 50 1013.0
20260506035032 49 325 0.9 0.9 0.00 0.00 0.00 49 1013.2
20260506034529 49 325 1.7 2.6 0.00 0.00 0.00 49 1012.9
20260506034026 49 330 1.7 2.6 0.00 0.00 0.00 50 1012.9
20260506033523 49 358 0.9 0.9 0.00 0.00 0.00 49 1012.9
20260506033021 50 334 0.9 1.7 0.00 0.00 0.00 49 1012.7
20260506032518 50 336 2.6 3.5 0.00 0.00 0.00 48 1012.8
20260506032014 50 331 0.9 1.7 0.00 0.00 0.00 48 1012.6
20260506031512 50 345 0.0 0.9 0.00 0.00 0.00 47 1012.7
20260506031009 50 322 1.7 1.7 0.00 0.00 0.00 47 1012.6
20260506030507 50 347 1.7 2.6 0.00 0.00 0.00 47 1012.6
20260506030004 50 19 0.9 0.9 0.00 0.00 0.00 47 1012.5
20260506025500 51 345 0.9 0.9 0.00 0.00 0.00 46 1012.4
20260506024957 51 18 0.9 0.9 0.00 0.00 0.00 46 1012.4
20260506024454 51 357 1.7 2.6 0.00 0.00 0.00 45 1012.3
20260506023949 51 344 1.7 1.7 0.00 0.00 0.00 45 1012.1
20260506023447 51 317 4.3 6.1 0.00 0.00 0.00 45 1012.2
20260506022943 51 345 1.7 2.6 0.00 0.00 0.00 45 1011.9
20260506022441 51 12 0.9 1.7 0.00 0.00 0.00 45 1012.0
20260506021939 52 347 1.7 1.7 0.00 0.00 0.00 45 1011.7
20260506021436 52 351 1.7 1.7 0.00 0.00 0.00 44 1011.7
20260506020933 52 352 2.6 2.6 0.00 0.00 0.00 43 1011.6
20260506020431 52 353 2.6 3.5 0.00 0.00 0.00 43 1011.6
20260506015927 52 19 3.5 3.5 0.00 0.00 0.00 43 1011.4
20260506015425 53 356 1.7 1.7 0.00 0.00 0.00 43 1011.2
20260506014922 53 11 3.5 3.5 0.00 0.00 0.00 43 1011.1
20260506014419 53 334 1.7 1.7 0.00 0.00 0.00 43 1011.1
20260506013915 53 345 1.7 1.7 0.00 0.00 0.00 42 1011.0
20260506013414 53 11 1.7 1.7 0.00 0.00 0.00 42 1010.9
20260506012909 53 335 0.9 1.7 0.00 0.00 0.00 42 1010.8
20260506012406 53 352 1.7 1.7 0.00 0.00 0.00 41 1010.8
20260506011903 53 14 1.7 2.6 0.00 0.00 0.00 41 1010.8
20260506011400 54 355 1.7 1.7 0.00 0.00 0.00 41 1010.6
20260506010857 54 355 0.9 0.9 0.00 0.00 0.00 40 1010.9
20260506010355 54 326 0.9 1.7 0.00 0.00 0.00 40 1010.7
20260506005852 54 328 0.9 0.9 0.00 0.00 0.00 39 1010.8
20260506005349 55 5 3.5 3.5 0.00 0.00 0.00 38 1010.6
20260506004844 55 8 4.3 6.1 0.00 0.00 0.00 38 1010.4
20260506004343 55 341 5.2 7.8 0.00 0.00 0.00 38 1010.4
20260506003838 55 346 5.2 6.1 0.00 0.00 0.00 38 1010.2
20260506003335 56 350 7.0 8.7 0.00 0.00 0.00 37 1010.3
20260506002831 56 345 4.3 7.0 0.00 0.00 0.00 37 1010.2
20260506002328 57 298 3.5 5.2 0.00 0.00 0.00 36 1009.8
20260506001823 57 331 2.6 2.6 0.00 0.00 0.00 36 1009.9
20260506001321 57 346 1.7 2.6 0.00 0.00 0.00 35 1010.1
20260506000818 57 299 3.5 3.5 0.00 0.00 0.00 35 1010.0
20260506000316 57 298 5.2 6.1 0.00 0.00 0.00 34 1010.0
20260505235812 58 357 3.5 5.2 0.00 0.00 0.00 34 1009.9
20260505235310 58 320 4.3 5.2 0.00 0.00 0.00 34 1009.8
20260505234806 58 260 1.7 2.6 0.00 0.00 0.00 33 1009.6
20260505234304 58 340 3.5 3.5 0.00 0.00 0.00 33 1009.7
20260505233801 58 318 3.5 3.5 0.00 0.00 0.00 33 1009.6
20260505233259 59 324 3.5 5.2 0.00 0.00 0.00 34 1009.7
20260505232755 58 295 3.5 5.2 0.00 0.00 0.00 34 1009.9
20260505232253 58 355 3.5 5.2 0.00 0.00 0.00 33 1009.7
20260505231749 58 336 3.5 5.2 0.00 0.00 0.00 33 1009.6
20260505231248 58 301 3.5 3.5 0.00 0.00 0.00 33 1009.8
20260505230746 58 323 5.2 7.0 0.00 0.00 0.00 34 1009.8
20260505230242 58 349 3.5 3.5 0.00 0.00 0.00 33 1009.9
20260505225739 58 307 5.2 6.1 0.00 0.00 0.00 34 1009.9
20260505225236 58 327 2.6 3.5 0.00 0.00 0.00 34 1009.8
20260505224731 58 334 2.6 2.6 0.00 0.00 0.00 33 1010.0
20260505224229 58 278 2.6 3.5 0.00 0.00 0.00 33 1009.8
20260505223727 58 279 2.6 3.5 0.00 0.00 0.00 33 1010.0
20260505223223 58 307 5.2 6.1 0.00 0.00 0.00 32 1010.0
20260505222719 58 309 1.7 2.6 0.00 0.00 0.00 32 1010.1
20260505222215 58 274 2.6 3.5 0.00 0.00 0.00 32 1010.0
20260505221713 58 347 2.6 2.6 0.00 0.00 0.00 32 1010.1
20260505221209 58 293 5.2 8.7 0.00 0.00 0.00 31 1010.2
20260505220706 58 313 6.1 7.0 0.00 0.00 0.00 32 1010.1
20260505220204 58 254 4.3 5.2 0.00 0.00 0.00 32 1010.3